Weather History for McAlester, OK

Change the Weather History Date:

Tuesday, October 8, 2013

  Actual Average Record
Temperature  
Mean Temperature 60 °F -  
Max Temperature 75 °F 75 °F 98 °F (1963)
Min Temperature 45 °F 52 °F 33 °F (2000)
Degree Days  
Heating Degree Days 5    
Growing Degree Days 10 (Base 50)    
Moisture  
Dew Point 47 °F    
Average Humidity 67    
Maximum Humidity 97    
Minimum Humidity 36    
Precipitation  
Precipitation 0.00 in - - ()
Sea Level Pressure  
Sea Level Pressure 30.09 in    
Wind  
Wind Speed 2 mph (SE)    
Max Wind Speed 7 mph    
Max Gust Speed 16 mph    
Visibility 10 miles    
Events      
Averages and records for this station are not official NWS values.
T = Trace of Precipitation, MM = Missing Value Source: NWS Daily Summary

Daily Weather History Graph

Daily Weather History Graph

Search for Another Location

Airport:

Trip Planner

Search our weather history database for the weather conditions in past years. The results will help you decide how hot, cold, wet, or windy it might be!

Date:

Astronomy

Oct. 08, 2013 Rise Set
Actual Time 7:23 AM CDT 6:57 PM CDT
Civil Twilight 6:58 AM CDT 7:22 PM CDT
Nautical Twilight 6:28 AM CDT 7:51 PM CDT
Astronomical Twilight 5:59 AM CDT 8:20 PM CDT
Moon 11:10 AM CDT (10/8) 9:43 PM CDT (10/8)
Length of Visible Light 12h 24m
Length of Day
11h 33m
Waxing Crescent, 16% of the Moon is Illuminated
Oct 8
Waxing Crescent
Oct 11
First Quarter
Oct 18
Full
Oct 26
Last Quarter
Nov 3
New

Hourly Weather History & Observations

Time (CDT) Temp. Dew Point Humidity Pressure Visibility Wind Dir Wind Speed Gust Speed Precip Events Conditions
12:53 AM 46.0 °F 44.1 °F 93% 30.11 in 10.0 mi Calm Calm - N/A   Clear
1:53 AM 45.0 °F 43.0 °F 93% 30.12 in 10.0 mi Calm Calm - N/A   Clear
2:53 AM 45.0 °F 43.0 °F 93% 30.12 in 10.0 mi Calm Calm - N/A   Scattered Clouds
3:53 AM 45.0 °F 44.1 °F 97% 30.11 in 10.0 mi Calm Calm - N/A   Clear
4:53 AM 48.0 °F 45.0 °F 89% 30.11 in 10.0 mi Calm Calm - N/A   Partly Cloudy
5:53 AM 48.0 °F 44.1 °F 86% 30.11 in 10.0 mi ESE 4.6 mph - N/A   Mostly Cloudy
6:53 AM 50.0 °F 44.1 °F 80% 30.12 in 10.0 mi ESE 5.8 mph - N/A   Clear
7:53 AM 50.0 °F 44.1 °F 80% 30.13 in 8.0 mi Calm Calm - N/A   Clear
8:53 AM 55.9 °F 46.9 °F 72% 30.14 in 10.0 mi ESE 4.6 mph - N/A   Partly Cloudy
9:53 AM 61.0 °F 50.0 °F 67% 30.14 in 10.0 mi SE 5.8 mph - N/A   Clear
10:53 AM 66.0 °F 48.9 °F 54% 30.15 in 10.0 mi South 6.9 mph 16.1 mph N/A   Partly Cloudy
11:53 AM 69.1 °F 48.9 °F 49% 30.14 in 10.0 mi SSE 5.8 mph - N/A   Partly Cloudy
12:53 PM 71.1 °F 48.9 °F 45% 30.12 in 10.0 mi Variable 6.9 mph - N/A   Clear
1:53 PM 73.0 °F 48.9 °F 42% 30.08 in 10.0 mi Calm Calm - N/A   Partly Cloudy
2:53 PM 73.9 °F 46.9 °F 38% 30.06 in 10.0 mi Variable 3.5 mph - N/A   Partly Cloudy
3:53 PM 73.9 °F 46.9 °F 38% 30.04 in 10.0 mi South 4.6 mph - N/A   Clear
4:53 PM 75.0 °F 46.0 °F 36% 30.03 in 10.0 mi Variable 4.6 mph - N/A   Clear
5:53 PM 73.9 °F 46.9 °F 38% 30.02 in 10.0 mi SE 3.5 mph - N/A   Clear
6:53 PM 66.0 °F 51.1 °F 59% 30.02 in 10.0 mi ESE 3.5 mph - N/A   Partly Cloudy
7:53 PM 60.1 °F 51.1 °F 72% 30.03 in 10.0 mi Calm Calm - N/A   Partly Cloudy
8:53 PM 60.1 °F 48.0 °F 64% 30.04 in 10.0 mi ESE 3.5 mph - N/A   Scattered Clouds
9:53 PM 55.9 °F 48.9 °F 77% 30.05 in 10.0 mi ESE 3.5 mph - N/A   Partly Cloudy
10:53 PM 57.9 °F 48.0 °F 70% 30.04 in 10.0 mi ESE 5.8 mph - N/A   Partly Cloudy
11:53 PM 55.0 °F 46.9 °F 74% 30.04 in 10.0 mi ESE 5.8 mph - N/A   Partly Cloudy